Location: Peebles
(55.6412°N, 3.1714°W)
Time: 09:07:56
(UTC+00:00)

COSMOS 2251 DEB - Pass Details

Date: 05 December 2022
Orbit: 738 x 761 km, 74.0° (Epoch: 29 January)

Event Time Altitude Azimuth Distance (km) Brightness Sun altitude
Exits shadow 03:43:36 10° 19° (NNE) 2,248 ? -37.8°
Drops below altitude 10° 03:43:38 10° 19° (NNE) 2,260 ? -37.8°
Sets 03:46:10 0° 28° (NNE) 3,189 ? -37.4°
